TAP1437 GMMN-LPPT

Flight info

Callsign TAP1437
Flight time 1h 1m
Altitude 36000
Route LAKAM UR722 AMSEL DCT VATZI
Aircraft A320/M-SDE3FGHIRWY/LB1

Departure

Time 2026-05-04 21:34
Airport Mohammed V International Airport (GMMN)

Arrival

Time 2026-05-04 22:35
Airport Lisbon Humberto Delgado Airport (LPPT)
Time Latitude Longitude Altitude Speed Heading
2026-05-04 21:06 33.37391 -7.58251 656 ft 0 kts 65°
2026-05-04 21:07 33.37391 -7.58252 656 ft 0 kts 65°
2026-05-04 21:09 33.37391 -7.58253 653 ft 0 kts 65°
2026-05-04 21:20 33.37387 -7.58264 653 ft 4 kts 63°
2026-05-04 21:21 33.37373 -7.58292 656 ft 4 kts 64°
2026-05-04 21:21 33.37368 -7.58318 657 ft 3 kts 96°
2026-05-04 21:21 33.37374 -7.58348 658 ft 4 kts 125°
2026-05-04 21:21 33.37393 -7.58367 657 ft 4 kts 162°
2026-05-04 21:22 33.37398 -7.58369 657 ft 3 kts 164°
2026-05-04 21:25 33.37340 -7.58349 653 ft 17 kts 164°
2026-05-04 21:26 33.37232 -7.58313 653 ft 15 kts 165°
2026-05-04 21:26 33.37126 -7.58278 653 ft 19 kts 165°
2026-05-04 21:26 33.37006 -7.58239 653 ft 14 kts 164°
2026-05-04 21:26 33.36930 -7.58301 653 ft 19 kts 252°
2026-05-04 21:27 33.36883 -7.58443 653 ft 18 kts 220°
2026-05-04 21:27 33.36747 -7.58426 653 ft 24 kts 163°
2026-05-04 21:27 33.36588 -7.58372 653 ft 21 kts 164°
2026-05-04 21:27 33.36455 -7.58324 653 ft 19 kts 163°
2026-05-04 21:28 33.36330 -7.58283 652 ft 18 kts 165°
2026-05-04 21:28 33.36216 -7.58246 655 ft 16 kts 165°
2026-05-04 21:28 33.36113 -7.58210 652 ft 15 kts 163°
2026-05-04 21:28 33.36013 -7.58175 654 ft 19 kts 164°
2026-05-04 21:29 33.35881 -7.58132 654 ft 19 kts 165°
2026-05-04 21:29 33.35758 -7.58090 652 ft 18 kts 163°
2026-05-04 21:29 33.35645 -7.58050 652 ft 16 kts 163°
2026-05-04 21:29 33.35544 -7.58015 653 ft 14 kts 163°
2026-05-04 21:30 33.35453 -7.57983 652 ft 13 kts 163°
2026-05-04 21:30 33.35371 -7.57954 653 ft 12 kts 163°
2026-05-04 21:30 33.35298 -7.57947 653 ft 10 kts 196°
2026-05-04 21:30 33.35255 -7.58002 653 ft 9 kts 249°
2026-05-04 21:31 33.35236 -7.58082 653 ft 0 kts 255°
2026-05-04 21:32 33.35235 -7.58083 653 ft 1 kts 255°
2026-05-04 21:32 33.35219 -7.58155 653 ft 11 kts 255°
2026-05-04 21:32 33.35223 -7.58234 654 ft 9 kts 298°
2026-05-04 21:32 33.35266 -7.58277 654 ft 8 kts 336°
2026-05-04 21:33 33.35287 -7.58285 653 ft 0 kts 343°
2026-05-04 21:33 33.35493 -7.58356 647 ft 69 kts 343°
2026-05-04 21:33 33.36165 -7.58594 646 ft 129 kts 344°
2026-05-04 21:34 33.37173 -7.58931 754 ft 164 kts 345°
2026-05-04 21:34 33.38224 -7.59285 1483 ft 159 kts 348°
2026-05-04 21:34 33.39305 -7.59604 2190 ft 161 kts 349°
2026-05-04 21:34 33.40394 -7.60073 2717 ft 175 kts 339°
2026-05-04 21:35 33.41525 -7.60788 3150 ft 192 kts 330°
2026-05-04 21:35 33.42649 -7.61774 3541 ft 211 kts 321°
2026-05-04 21:35 33.43720 -7.63124 3934 ft 234 kts 309°
2026-05-04 21:35 33.44649 -7.64765 4753 ft 241 kts 303°
2026-05-04 21:36 33.45573 -7.66453 5627 ft 242 kts 303°
2026-05-04 21:36 33.46498 -7.68120 6562 ft 244 kts 302°
2026-05-04 21:36 33.47443 -7.69815 7420 ft 247 kts 302°
2026-05-04 21:36 33.48403 -7.71538 8277 ft 250 kts 302°
2026-05-04 21:37 33.49377 -7.73289 9137 ft 253 kts 301°
2026-05-04 21:37 33.50358 -7.75058 10021 ft 256 kts 301°
2026-05-04 21:37 33.51351 -7.76847 10802 ft 259 kts 301°
2026-05-04 21:37 33.52355 -7.78657 11571 ft 262 kts 301°
2026-05-04 21:38 33.53371 -7.80496 12348 ft 266 kts 301°
2026-05-04 21:38 33.54397 -7.82352 13129 ft 269 kts 301°
2026-05-04 21:38 33.55427 -7.84212 13885 ft 272 kts 301°
2026-05-04 21:38 33.56481 -7.86114 14562 ft 276 kts 302°
2026-05-04 21:39 33.57811 -7.87804 15232 ft 283 kts 322°
2026-05-04 21:39 33.59627 -7.88804 15841 ft 297 kts 343°
2026-05-04 21:39 33.61781 -7.88886 16010 ft 327 kts
2026-05-04 21:39 33.64084 -7.88290 16141 ft 350 kts
2026-05-04 21:40 33.66536 -7.87629 16269 ft 371 kts
2026-05-04 21:40 33.69125 -7.86931 16398 ft 390 kts
2026-05-04 21:40 33.71797 -7.86218 16671 ft 403 kts
2026-05-04 21:40 33.74568 -7.85487 17181 ft 409 kts
2026-05-04 21:41 33.76422 -7.84997 17549 ft 412 kts
2026-05-04 21:41 33.79237 -7.84254 18102 ft 416 kts
2026-05-04 21:41 33.82086 -7.83505 18614 ft 420 kts
2026-05-04 21:41 33.85887 -7.82510 19251 ft 424 kts
2026-05-04 21:42 33.88789 -7.81745 19736 ft 427 kts
2026-05-04 21:42 33.90722 -7.81236 20061 ft 429 kts
2026-05-04 21:42 33.93656 -7.80460 20543 ft 432 kts
2026-05-04 21:42 33.96611 -7.79681 21017 ft 435 kts
2026-05-04 21:43 33.99583 -7.78900 21529 ft 438 kts
2026-05-04 21:43 34.02570 -7.78114 21988 ft 440 kts
2026-05-04 21:43 34.05577 -7.77320 22444 ft 443 kts
2026-05-04 21:43 34.08567 -7.76529 22882 ft 446 kts
2026-05-04 21:44 34.11612 -7.75725 23309 ft 449 kts
2026-05-04 21:44 34.14682 -7.74914 23716 ft 452 kts
2026-05-04 21:44 34.17770 -7.74210 24055 ft 451 kts
2026-05-04 21:44 34.20906 -7.74000 24403 ft 448 kts 354°
2026-05-04 21:45 34.24022 -7.74200 24770 ft 449 kts 351°
2026-05-04 21:45 34.27154 -7.74426 25135 ft 451 kts 351°
2026-05-04 21:45 34.30255 -7.74644 25476 ft 453 kts 351°
2026-05-04 21:45 34.33416 -7.74861 25806 ft 455 kts 352°
2026-05-04 21:46 34.36609 -7.75077 26141 ft 458 kts 352°
2026-05-04 21:46 34.39802 -7.75293 26460 ft 460 kts 351°
2026-05-04 21:46 34.42962 -7.75511 26768 ft 462 kts 351°
2026-05-04 21:46 34.46184 -7.75734 27073 ft 464 kts 351°
2026-05-04 21:47 34.49413 -7.75960 27403 ft 466 kts 351°
2026-05-04 21:47 34.52663 -7.76187 27696 ft 468 kts 351°
2026-05-04 21:47 34.55921 -7.76413 27991 ft 470 kts 351°
2026-05-04 21:47 34.59198 -7.76642 28305 ft 471 kts 351°
2026-05-04 21:48 34.62434 -7.76867 28727 ft 470 kts 351°
2026-05-04 21:48 34.65691 -7.77093 29155 ft 469 kts 351°
2026-05-04 21:48 34.68953 -7.77320 29581 ft 468 kts 351°
2026-05-04 21:48 34.72202 -7.77546 30005 ft 467 kts 351°
2026-05-04 21:49 34.75448 -7.77775 30423 ft 466 kts 350°
2026-05-04 21:49 34.78644 -7.78022 30791 ft 464 kts 349°
2026-05-04 21:49 34.81868 -7.78291 31157 ft 463 kts 349°
2026-05-04 21:49 34.85077 -7.78569 31517 ft 462 kts 349°
2026-05-04 21:50 34.88289 -7.78852 31879 ft 461 kts 349°
2026-05-04 21:50 34.91458 -7.79128 32237 ft 460 kts 349°
2026-05-04 21:50 34.94650 -7.79401 32595 ft 459 kts 349°
2026-05-04 21:50 34.97842 -7.79670 32953 ft 458 kts 349°
2026-05-04 21:51 35.01020 -7.79936 33351 ft 457 kts 349°
2026-05-04 21:51 35.04193 -7.80197 33787 ft 454 kts 349°
2026-05-04 21:51 35.07345 -7.80458 34178 ft 452 kts 348°
2026-05-04 21:51 35.10450 -7.80719 34489 ft 451 kts 348°
2026-05-04 21:52 35.13588 -7.80986 34785 ft 451 kts 348°
2026-05-04 21:52 35.16719 -7.81256 35064 ft 451 kts 348°
2026-05-04 21:52 35.19848 -7.81523 35331 ft 451 kts 348°
2026-05-04 21:52 35.22985 -7.81787 35589 ft 451 kts 348°
2026-05-04 21:53 35.26125 -7.82052 35867 ft 451 kts 347°
2026-05-04 21:53 35.29216 -7.82310 36080 ft 451 kts 347°
2026-05-04 21:53 35.32359 -7.82574 36138 ft 454 kts 347°
2026-05-04 21:54 35.38681 -7.83103 36146 ft 455 kts 347°
2026-05-04 21:54 35.45004 -7.83643 36146 ft 455 kts 347°
2026-05-04 21:55 35.51279 -7.84216 36158 ft 454 kts 347°
2026-05-04 21:55 35.57585 -7.84795 36139 ft 453 kts 347°
2026-05-04 21:56 35.63881 -7.85365 36144 ft 453 kts 347°
2026-05-04 21:56 35.70145 -7.85924 36146 ft 453 kts 347°
2026-05-04 21:57 35.76429 -7.86485 36144 ft 453 kts 347°
2026-05-04 21:57 35.82724 -7.87057 36144 ft 453 kts 347°
2026-05-04 21:58 35.89026 -7.87642 36145 ft 453 kts 347°
2026-05-04 21:58 35.95249 -7.88379 36144 ft 444 kts 340°
2026-05-04 21:59 36.00946 -7.90828 36177 ft 426 kts 326°
2026-05-04 21:59 36.06276 -7.93983 36166 ft 427 kts 326°
2026-05-04 22:00 36.11646 -7.97142 36156 ft 426 kts 326°
2026-05-04 22:00 36.16970 -8.00287 36154 ft 426 kts 326°
2026-05-04 22:01 36.22339 -8.03452 36150 ft 427 kts 326°
2026-05-04 22:01 36.27710 -8.06618 36181 ft 427 kts 326°
2026-05-04 22:02 36.33078 -8.09794 36169 ft 427 kts 326°
2026-05-04 22:02 36.38407 -8.12958 36160 ft 427 kts 326°
2026-05-04 22:03 36.43775 -8.16147 36144 ft 426 kts 326°
2026-05-04 22:03 36.49100 -8.19314 36172 ft 427 kts 326°
2026-05-04 22:04 36.54469 -8.22511 36160 ft 427 kts 326°
2026-05-04 22:04 36.59827 -8.25717 36151 ft 427 kts 326°
2026-05-04 22:05 36.65196 -8.28929 36148 ft 427 kts 326°
2026-05-04 22:05 36.70535 -8.32126 36173 ft 428 kts 326°
2026-05-04 22:06 36.75906 -8.35346 36165 ft 428 kts 326°
2026-05-04 22:06 36.81271 -8.38570 36159 ft 428 kts 326°
2026-05-04 22:07 36.86648 -8.41799 36158 ft 428 kts 326°
2026-05-04 22:07 36.92026 -8.45035 36159 ft 428 kts 326°
2026-05-04 22:08 36.97355 -8.48248 36163 ft 426 kts 326°
2026-05-04 22:08 37.02697 -8.51478 36165 ft 425 kts 326°
2026-05-04 22:09 37.08020 -8.54707 36160 ft 424 kts 326°
2026-05-04 22:09 37.13336 -8.57932 36151 ft 424 kts 326°
2026-05-04 22:10 37.18624 -8.61143 36154 ft 423 kts 326°
2026-05-04 22:10 37.23927 -8.64369 36153 ft 423 kts 326°
2026-05-04 22:11 37.29224 -8.67589 36153 ft 423 kts 326°
2026-05-04 22:11 37.34521 -8.70815 36152 ft 422 kts 326°
2026-05-04 22:12 37.39765 -8.74034 36186 ft 422 kts 326°
2026-05-04 22:12 37.45050 -8.77271 36177 ft 421 kts 326°
2026-05-04 22:13 37.50295 -8.80480 36176 ft 421 kts 326°
2026-05-04 22:13 37.55559 -8.83708 36170 ft 420 kts 326°
2026-05-04 22:13 37.58190 -8.85328 35622 ft 423 kts 326°
2026-05-04 22:14 37.60944 -8.86790 34682 ft 437 kts 333°
2026-05-04 22:14 37.63854 -8.87969 33953 ft 437 kts 334°
2026-05-04 22:14 37.66732 -8.89135 33043 ft 439 kts 334°
2026-05-04 22:14 37.69634 -8.90310 32362 ft 436 kts 334°
2026-05-04 22:15 37.72521 -8.91478 31715 ft 432 kts 334°
2026-05-04 22:15 37.75376 -8.92633 31079 ft 429 kts 335°
2026-05-04 22:15 37.78209 -8.93782 30447 ft 425 kts 335°
2026-05-04 22:15 37.81019 -8.94927 29769 ft 422 kts 335°
2026-05-04 22:16 37.83771 -8.96051 29124 ft 418 kts 335°
2026-05-04 22:16 37.86529 -8.97179 28548 ft 413 kts 334°
2026-05-04 22:16 37.89256 -8.98294 27958 ft 408 kts 334°
2026-05-04 22:16 37.91945 -8.99430 27230 ft 403 kts 330°
2026-05-04 22:17 37.94345 -9.01196 26141 ft 397 kts 316°
2026-05-04 22:17 37.96261 -9.03617 25214 ft 391 kts 303°
2026-05-04 22:17 37.97517 -9.06622 24418 ft 384 kts 285°
2026-05-04 22:17 37.97887 -9.09954 23609 ft 383 kts 269°
2026-05-04 22:18 37.97330 -9.13275 22675 ft 389 kts 251°
2026-05-04 22:18 37.95897 -9.16218 21788 ft 399 kts 233°
2026-05-04 22:18 37.93707 -9.18442 21110 ft 409 kts 214°
2026-05-04 22:18 37.91049 -9.19672 20482 ft 418 kts 197°
2026-05-04 22:19 37.88116 -9.19800 19868 ft 428 kts 178°
2026-05-04 22:19 37.85241 -9.18744 19403 ft 434 kts 159°
2026-05-04 22:19 37.82735 -9.16610 18955 ft 436 kts 140°
2026-05-04 22:19 37.80843 -9.13628 18534 ft 434 kts 122°
2026-05-04 22:20 37.79686 -9.10133 18093 ft 429 kts 104°
2026-05-04 22:20 37.79334 -9.06482 17757 ft 410 kts 87°
2026-05-04 22:20 37.79720 -9.03001 17482 ft 399 kts 71°
2026-05-04 22:20 37.80763 -8.99806 17175 ft 390 kts 56°
2026-05-04 22:21 37.82375 -8.97103 16766 ft 378 kts 40°
2026-05-04 22:21 37.84394 -8.95053 16365 ft 367 kts 26°
2026-05-04 22:21 37.86672 -8.93691 15980 ft 357 kts 12°
2026-05-04 22:21 37.89056 -8.93040 15604 ft 347 kts 360°
2026-05-04 22:22 37.91431 -8.93064 15235 ft 338 kts 347°
2026-05-04 22:22 37.93677 -8.93718 14881 ft 331 kts 336°
2026-05-04 22:22 37.95841 -8.94706 14535 ft 329 kts 336°
2026-05-04 22:22 37.98000 -8.95690 14187 ft 328 kts 336°
2026-05-04 22:23 38.00147 -8.96663 13826 ft 327 kts 336°
2026-05-04 22:23 38.02293 -8.97634 13448 ft 326 kts 336°
2026-05-04 22:23 38.04429 -8.98601 13111 ft 325 kts 336°
2026-05-04 22:23 38.06538 -8.99558 12770 ft 324 kts 337°
2026-05-04 22:24 38.08657 -9.00521 12428 ft 323 kts 337°
2026-05-04 22:24 38.10770 -9.01482 12076 ft 321 kts 337°
2026-05-04 22:24 38.12873 -9.02438 11741 ft 320 kts 337°
2026-05-04 22:24 38.14941 -9.03377 11409 ft 319 kts 338°
2026-05-04 22:25 38.17026 -9.04324 11058 ft 318 kts 338°
2026-05-04 22:25 38.19109 -9.05272 10733 ft 316 kts 338°
2026-05-04 22:25 38.21180 -9.06219 10394 ft 316 kts 338°
2026-05-04 22:25 38.23247 -9.07165 10049 ft 314 kts 338°
2026-05-04 22:26 38.25306 -9.08107 9698 ft 313 kts 338°
2026-05-04 22:26 38.27353 -9.09041 9360 ft 311 kts 338°
2026-05-04 22:26 38.29381 -9.09968 9035 ft 308 kts 338°
2026-05-04 22:26 38.31376 -9.10878 8703 ft 298 kts 338°
2026-05-04 22:27 38.33247 -9.11729 8405 ft 279 kts 338°
2026-05-04 22:27 38.35047 -9.12549 8113 ft 271 kts 339°
2026-05-04 22:27 38.36814 -9.13359 7825 ft 267 kts 338°
2026-05-04 22:27 38.38564 -9.14167 7541 ft 267 kts 338°
2026-05-04 22:28 38.40282 -9.14963 7257 ft 264 kts 338°
2026-05-04 22:28 38.42014 -9.15763 6982 ft 262 kts 339°
2026-05-04 22:28 38.43155 -9.16289 6798 ft 261 kts 339°
2026-05-04 22:28 38.44863 -9.17074 6511 ft 260 kts 339°
2026-05-04 22:29 38.46571 -9.17858 6222 ft 261 kts 339°
2026-05-04 22:29 38.48818 -9.18885 5854 ft 257 kts 339°
2026-05-04 22:29 38.50490 -9.19651 5583 ft 253 kts 339°
2026-05-04 22:29 38.51590 -9.20159 5405 ft 253 kts 339°
2026-05-04 22:30 38.53250 -9.20927 5095 ft 253 kts 339°
2026-05-04 22:30 38.54918 -9.21697 4602 ft 254 kts 339°
2026-05-04 22:30 38.56571 -9.22464 4106 ft 247 kts 338°
2026-05-04 22:30 38.58073 -9.23283 3998 ft 221 kts 345°
2026-05-04 22:31 38.59515 -9.23395 3929 ft 207 kts
2026-05-04 22:31 38.60879 -9.22806 3718 ft 206 kts 19°
2026-05-04 22:31 38.62191 -9.22101 3459 ft 199 kts 19°
2026-05-04 22:31 38.63432 -9.21435 3214 ft 187 kts 19°
2026-05-04 22:32 38.64610 -9.20808 2952 ft 180 kts 19°
2026-05-04 22:32 38.65747 -9.20202 2724 ft 176 kts 18°
2026-05-04 22:32 38.66858 -9.19611 2474 ft 175 kts 19°
2026-05-04 22:32 38.67980 -9.19013 2243 ft 174 kts 18°
2026-05-04 22:33 38.69093 -9.18421 2005 ft 174 kts 18°
2026-05-04 22:33 38.70211 -9.17824 1768 ft 173 kts 19°
2026-05-04 22:33 38.71318 -9.17233 1516 ft 166 kts 18°
2026-05-04 22:33 38.72309 -9.16702 1319 ft 145 kts 18°
2026-05-04 22:34 38.73198 -9.16227 1116 ft 136 kts 18°
2026-05-04 22:34 38.74055 -9.15775 943 ft 132 kts 20°
2026-05-04 22:34 38.74912 -9.15320 732 ft 134 kts 20°
2026-05-04 22:34 38.75771 -9.14851 561 ft 134 kts 19°
2026-05-04 22:35 38.76640 -9.14398 389 ft 134 kts 19°
2026-05-04 22:35 38.77451 -9.13967 365 ft 107 kts 23°
2026-05-04 22:35 38.77988 -9.13680 364 ft 67 kts 22°
2026-05-04 22:35 38.78259 -9.13497 365 ft 35 kts 39°
2026-05-04 22:36 38.78366 -9.13306 362 ft 20 kts 112°
2026-05-04 22:36 38.78237 -9.13308 362 ft 22 kts 204°
2026-05-04 22:36 38.78112 -9.13375 360 ft 17 kts 203°
2026-05-04 22:36 38.78026 -9.13410 358 ft 13 kts 185°
2026-05-04 22:37 38.77930 -9.13391 354 ft 16 kts 168°
2026-05-04 22:37 38.77829 -9.13365 347 ft 16 kts 169°
2026-05-04 22:37 38.77723 -9.13335 336 ft 9 kts 170°
2026-05-04 22:37 38.77654 -9.13322 337 ft 10 kts 175°
2026-05-04 22:38 38.77588 -9.13317 335 ft 9 kts 177°
2026-05-04 22:38 38.77542 -9.13312 338 ft 4 kts 163°
2026-05-04 22:38 38.77532 -9.13281 337 ft 5 kts 84°
2026-05-04 22:38 38.77539 -9.13242 335 ft 4 kts 76°
2026-05-04 22:39 38.77545 -9.13207 337 ft 4 kts 78°
2026-05-04 22:39 38.77550 -9.13176 333 ft 3 kts 78°
2026-05-04 22:39 38.77551 -9.13168 333 ft 0 kts 78°